Simultaneous Nadir Overpasses (SNOs) Predictions

Prediction of SNOs between GOES-15 and METOP-B Satellite Orbit:

Table of predicted SNOs for the next 14.0 days since TLE Epoch: 10/10/2025
Index Date Time (GOES-15) GOES-15 Lat,Lon METOP-B Lat,Lon Distance(km) Time Diff (sec)
1 10/11/2025 16:57:51 -0.60, 61.45 -0.65, 61.12 37.67 80
2 10/14/2025 04:53:41 0.61, 61.35 0.59, 61.48 15.38 80
3 10/16/2025 16:52:19 -0.62, 61.50 -0.53, 61.81 36.33 80
4 10/18/2025 05:11:21 0.64, 61.38 1.58, 57.21 475.84 80
5 10/19/2025 04:50:48 0.63, 61.39 0.47, 62.17 89.00 80
6 10/20/2025 17:12:38 -0.65, 61.53 -1.56, 57.55 454.27 80
7 10/21/2025 16:49:25 -0.64, 61.54 -0.44, 62.51 109.95 80
8 10/23/2025 05:08:29 0.65, 61.44 1.43, 57.90 403.45 80
9 10/24/2025 04:50:36 0.65, 61.45 0.31, 62.86 160.97 80
